Location: Alsip
(41.6689°N, 87.7387°W)
Time: 14:20:02
(UTC+00:00)

USA 215 - Pass Details

Date: 14 July 2020
Orbit: 1102 x 1106 km, 123.0° (Epoch: 31 July)

Event Time Altitude Azimuth Distance (km) Brightness Sun altitude
Rises 05:16:52 0° 46° (NE) 3,925 6.6 -26.1°
Reaches altitude 10° 05:19:23 10° 42° (NE) 2,964 6.0 -26.1°
Maximum altitude 05:25:46 59° 326° (NW) 1,263 3.7 -26.3°
Drops below altitude 10° 05:32:08 10° 249° (WSW) 2,955 5.4 -26.5°
Enters shadow 05:33:39 - 247° (WSW) 3,524 5.7 -26.5°
